Location: *
(43.9905°S, 176.4941°W)
Time: 02:27:05
(UTC+00:00)

Cosmos 1300 Rocket - Pass Details

Date: 08 December 2019
Orbit: 602 x 626 km, 82.5° (Epoch: 25 January)

Event Time Altitude Azimuth Distance (km) Brightness Sun altitude
Rises 07:47:25 0° 2° (N) 2,859 6.6 -5.0°
Reaches altitude 10° 07:49:37 10° 6° (N) 1,967 5.7 -5.4°
Maximum altitude 07:53:55 61° 85° (E) 710 3.6 -6.0°
Drops below altitude 10° 07:58:18 10° 165° (SSE) 2,010 6.5 -6.6°
Sets 08:00:35 0° 168° (SSE) 2,929 7.4 -6.9°
